Location: Drocourt
(49.0571°N, 1.7669°E)
Time: 13:31:22
(UTC+00:00)

SR - Pass Details

Date: 14 April 2024
Orbit: 579 x 859 km, 66.7° (Epoch: 28 May)

Event Time Altitude Azimuth Distance (km) Brightness Sun altitude
Rises 08:29:37 0° 321° (NW) 3,141 ? 32.3°
Reaches altitude 10° 08:33:59 10° 356° (N) 2,135 ? 32.9°
Maximum altitude 08:35:23 11° 13° (NNE) 2,035 ? 33.1°
Drops below altitude 10° 08:36:45 10° 30° (NNE) 2,084 ? 33.3°
Sets 08:40:49 0° 67° (ENE) 2,921 ? 33.9°
